CANX-4

Last updated on Sat Oct 18 2025 00:03:54 GMT+0000 (Coordinated Universal Time)

1 40055U 14034C 25290.59668272 .00001770 00000+0 23801-3 0 9990 2 40055 98.3431 151.5927 0014229 71.9048 288.3711 14.80556492608627
UTC large
Height (km)
Speed (km/s)
/
Latitude / Longitude
Inclination (degrees)
Orbital Period (minutes)
Azimuth
Elevation
Range (km)
Doppler Factor

Next 0 passes for location: London (51.5072 / 0.1276)

Sorry there are no passes over London.